QPF
0.00 0.00 0.00 0.00 0.00 0.00 0.00 0.00 0.00 0.00 0.00 0.00 0.00 0.00 0.00 0.00 0.00 0.00 0.00 0.00 0.00 0.00 0.00 0.00 0.00 0.00 0.00 0.00 0.00 0.00 0.00 0.00 0.00 0.00 0.00 0.00 0.00 0.00 0.00 0.00 0.00 0.00 0.00 0.00 0.00 0.00 0.00 0.00 0.00
0.00 0.00 0.00 0.00 0.00 0.00 0.00 0.00 0.00 0.00 0.00 0.00 0.00 0.00 0.00 0.00 0.00 0.00 0.00 0.00 0.00 0.00 0.00 0.00 0.00 0.00 0.00 0.00 0.00 0.00 0.00 0.00 0.00 0.00 0.00 0.00 0.00 0.00 0.00 0.00 0.00 0.00 0.00 0.00 0.00 0.00 0.00 0.00 0.00
0.00 0.00 0.00 0.00 0.00 0.00 0.00 0.00 0.00 0.00 0.00 0.00 0.00 0.00 0.00 0.00 0.00 0.00 0.00 0.00 0.00 0.00 0.00 0.00 0.00 0.00 0.00 0.00 0.00 0.00 0.00 0.00 0.00 0.00 0.00 0.00 0.00 0.00 0.00 0.00 0.00 0.00 0.00 0.00 0.00 0.00 0.00 0.00 0.00
0.00 0.00 0.00 0.00 0.00 0.00 0.00 0.00 0.00 0.00 0.00 0.00 0.00 0.00 0.00 0.00 0.00 0.00 0.00 0.00 0.00 0.00 0.00 0.00 0.00 0.00 0.00 0.00 0.00 0.00 0.00 0.00 0.00 0.00 0.00 0.00 0.00 0.00 0.00 0.00 0.00 0.00 0.00 0.00 0.00 0.00 0.00 0.00 0.00
0.00 0.00 0.00 0.00 0.00 0.00 0.00 0.00 0.00 0.00 0.00 0.00 0.00 0.00 0.00 0.00 0.00 0.00 0.00 0.00 0.00 0.00 0.00 0.00 0.00 0.00 0.00 0.00 0.00 0.00 0.00 0.00 0.00 0.00 0.00 0.00 0.00 0.00 0.00 0.00 0.00 0.00 0.00 0.00 0.00 0.00 0.00 0.00 0.00
0.00 0.00 0.00 0.00 0.00 0.00 0.00 0.00 0.00 0.00 0.00 0.00 0.00 0.00 0.00 0.00 0.00 0.00 0.00 0.00 0.00 0.00 0.00 0.00 0.00 0.00 0.00 0.00 0.00 0.00 0.00 0.00 0.00 0.00 0.00 0.00 0.00 0.00 0.00 0.00 0.00 0.00 0.00 0.00 0.00 0.00 0.00 0.00 0.00
0.00 0.00 0.00 0.00 0.00 0.00 0.00 0.00 0.00 0.00 0.00 0.00 0.00 0.00 0.00 0.00 0.00 0.00 0.00 0.00 0.00 0.00 0.00 0.00 0.00 0.00 0.00 0.00 0.00 0.00 0.00 0.00 0.00 0.00 0.00 0.00 0.00 0.00 0.00 0.00 0.00 0.00 0.00 0.00 0.00 0.00 0.00 0.00 0.00
0.00 0.00 0.00 0.00 0.00 0.00 0.00 0.00 0.00 0.00 0.00 0.00 0.00 0.00 0.00 0.00 0.00 0.00 0.00 0.00 0.00 0.00 0.00 0.00 0.00 0.00 0.00 0.00 0.00 0.00 0.00 0.00 0.00 0.00 0.00 0.00 0.00 0.00 0.00 0.00 0.00 0.00 0.00 0.00 0.00 0.00 0.00 0.00 0.00
0.00 0.00 0.00 0.00 0.00 0.00 0.00 0.00 0.00 0.00 0.00 0.00 0.00 0.00 0.00 0.00 0.00 0.00 0.00 0.00 0.00 0.00 0.00 0.00 0.00 0.00 0.00 0.00 0.00 0.00 0.00 0.00 0.00 0.00 0.00 0.00 0.00 0.00 0.00 0.00 0.00 0.00 0.00 0.00 0.00 0.00 0.00 0.00 0.00
0.00 0.00 0.00 0.00 0.00 0.00 0.00 0.00 0.00 0.00 0.00 0.00 0.00 0.00 0.00 0.00 0.00 0.00 0.00 0.00 0.00 0.00 0.00 0.00 0.00 0.00 0.00 0.00 0.00 0.00 0.00 0.00 0.00 0.00 0.00 0.00 0.00 0.00 0.00 0.00 0.00 0.00 0.00 0.00 0.00 0.00 0.00 0.00 0.00
0.00 0.00 0.00 0.00 0.00 0.00 0.00 0.00 0.00 0.00 0.00 0.00 0.00 0.00 0.00 0.00 0.00 0.00 0.00 0.00 0.00 0.00 0.00 0.00 0.00 0.00 0.00 0.00 0.00 0.00 0.00 0.00 0.00 0.00 0.00 0.00 0.00 0.00 0.00 0.00 0.00 0.00 0.00 0.00 0.00 0.00 0.00 0.00 0.00
0.00 0.00 0.00 0.00 0.00 0.00 0.00 0.00 0.00 0.00 0.00 0.00 0.00 0.00 0.00 0.00 0.00 0.00 0.00 0.00 0.00 0.00 0.00 0.00 0.00 0.00 0.00 0.00 0.00 0.00 0.00 0.00 0.00 0.00 0.00 0.00 0.00 0.00 0.00 0.00 0.00 0.00 0.00 0.00 0.00 0.00 0.00 0.00 0.00
0.00 0.00 0.00 0.00 0.00 0.00 0.00 0.00 0.00 0.00 0.00 0.00 0.00 0.00 0.00 0.00 0.00 0.00 0.00 0.00 0.00 0.00 0.00 0.00 0.00 0.00 0.00 0.00 0.00 0.00 0.00 0.00 0.00 0.00 0.00 0.00 0.00 0.00 0.00 0.00 0.00 0.00 0.00 0.00 0.00 0.00 0.00 0.00 0.00
0.00 0.00 0.00 0.00 0.00 0.00 0.00 0.00 0.00 0.00 0.00 0.00 0.00 0.00 0.00 0.00 0.00 0.00 0.00 0.00 0.00 0.00 0.00 0.00 0.00 0.00 0.00 0.00 0.00 0.00 0.00 0.00 0.00 0.00 0.00 0.00 0.00 0.00 0.00 0.00 0.00 0.00 0.00 0.00 0.00 0.00 0.00 0.00 0.00
0.00 0.00 0.00 0.00 0.00 0.00 0.00 0.00 0.00 0.00 0.00 0.00 0.00 0.00 0.00 0.00 0.00 0.00 0.00 0.00 0.00 0.00 0.00 0.00 0.00 0.00 0.00 0.00 0.00 0.00 0.00 0.00 0.00 0.00 0.00 0.00 0.00 0.00 0.00 0.00 0.00 0.00 0.00 0.00 0.00 0.00 0.00 0.00 0.00
0.00 0.00 0.00 0.00 0.00 0.00 0.00 0.00 0.00 0.00 0.00 0.00 0.00 0.00 0.00 0.00 0.00 0.00 0.00 0.00 0.00 0.00 0.00 0.00 0.00 0.00 0.00 0.00 0.00 0.00 0.00 0.00 0.00 0.00 0.00 0.00 0.00 0.00 0.00 0.00 0.00 0.00 0.00 0.00 0.00 0.00 0.00 0.00 0.03
0.00 0.00 0.00 0.00 0.00 0.00 0.00 0.00 0.00 0.00 0.00 0.00 0.00 0.00 0.00 0.00 0.00 0.00 0.00 0.00 0.00 0.00 0.00 0.00 0.00 0.00 0.00 0.00 0.00 0.00 0.00 0.00 0.00 0.00 0.00 0.00 0.00 0.00 0.00 0.00 0.00 0.00 0.00 0.00 0.00 0.00 0.00 0.06 0.08
0.00 0.00 0.00 0.00 0.00 0.00 0.00 0.00 0.00 0.00 0.00 0.00 0.00 0.00 0.00 0.00 0.00 0.00 0.00 0.00 0.00 0.00 0.00 0.00 0.00 0.00 0.00 0.00 0.00 0.00 0.00 0.00 0.00 0.00 0.00 0.00 0.00 0.00 0.00 0.00 0.00 0.00 0.01 0.00 0.00 0.01 0.06 0.10 0.07
0.00 0.00 0.00 0.00 0.00 0.00 0.00 0.00 0.00 0.00 0.00 0.00 0.00 0.00 0.00 0.00 0.00 0.00 0.00 0.00 0.00 0.00 0.00 0.00 0.00 0.00 0.00 0.00 0.00 0.00 0.00 0.00 0.00 0.00 0.00 0.00 0.00 0.00 0.00 0.00 0.00 0.00 0.01 0.00 0.00 0.07 0.09 0.06 0.04
0.00 0.00 0.00 0.00 0.00 0.00 0.00 0.00 0.00 0.00 0.00 0.00 0.00 0.00 0.00 0.00 0.00 0.00 0.00 0.00 0.00 0.00 0.00 0.00 0.00 0.00 0.00 0.00 0.00 0.00 0.00 0.00 0.00 0.00 0.00 0.00 0.00 0.00 0.00 0.00 0.00 0.00 0.00 0.00 0.00 0.08 0.07 0.08 0.03
0.00 0.00 0.00 0.00 0.00 0.00 0.00 0.00 0.00 0.00 0.00 0.00 0.00 0.00 0.00 0.00 0.00 0.00 0.00 0.00 0.00 0.00 0.00 0.00 0.00 0.00 0.00 0.00 0.00 0.00 0.00 0.00 0.00 0.00 0.00 0.00 0.00 0.00 0.00 0.00 0.00 0.00 0.00 0.01 0.01 0.11 0.05 0.08 0.03
0.00 0.00 0.00 0.00 0.00 0.00 0.00 0.00 0.00 0.00 0.00 0.00 0.00 0.00 0.00 0.00 0.00 0.00 0.00 0.00 0.00 0.00 0.00 0.00 0.00 0.00 0.00 0.00 0.00 0.00 0.00 0.00 0.00 0.00 0.00 0.00 0.00 0.00 0.00 0.00 0.00 0.00 0.00 0.00 0.09 0.09 0.02 0.05 0.05
0.00 0.00 0.00 0.00 0.00 0.00 0.00 0.00 0.00 0.00 0.00 0.00 0.00 0.00 0.00 0.00 0.00 0.00 0.00 0.00 0.00 0.00 0.00 0.00 0.00 0.00 0.00 0.00 0.00 0.00 0.00 0.00 0.00 0.00 0.00 0.00 0.00 0.00 0.00 0.00 0.00 0.00 0.02 0.00 0.06 0.05 0.03 0.03 0.00
0.00 0.00 0.00 0.00 0.00 0.00 0.00 0.00 0.00 0.00 0.00 0.00 0.00 0.00 0.00 0.00 0.00 0.00 0.00 0.00 0.00 0.00 0.00 0.00 0.00 0.00 0.00 0.00 0.00 0.00 0.00 0.00 0.00 0.00 0.00 0.00 0.00 0.00 0.00 0.00 0.00 0.01 0.05 0.10 0.08 0.03 0.01 0.00 0.00
0.00 0.00 0.00 0.00 0.00 0.00 0.00 0.00 0.00 0.00 0.00 0.00 0.00 0.00 0.00 0.00 0.00 0.00 0.00 0.00 0.00 0.00 0.00 0.00 0.00 0.00 0.00 0.00 0.00 0.00 0.00 0.00 0.00 0.00 0.00 0.00 0.00 0.00 0.00 0.00 0.01 0.05 0.05 0.01 0.00 0.00 0.00 0.00 0.00
0.00 0.00 0.00 0.00 0.00 0.00 0.00 0.00 0.00 0.00 0.00 0.00 0.00 0.00 0.00 0.00 0.00 0.00 0.00 0.00 0.00 0.00 0.00 0.00 0.00 0.00 0.00 0.00 0.00 0.00 0.00 0.00 0.00 0.00 0.00 0.00 0.00 0.00 0.00 0.01 0.02 0.00 0.00 0.00 0.00 0.00 0.00 0.00 0.01
0.00 0.00 0.00 0.00 0.00 0.00 0.00 0.00 0.00 0.00 0.00 0.00 0.00 0.00 0.00 0.00 0.00 0.00 0.00 0.00 0.00 0.00 0.00 0.00 0.00 0.00 0.00 0.00 0.00 0.00 0.00 0.00 0.00 0.00 0.00 0.00 0.00 0.00 0.00 0.00 0.00 0.00 0.00 0.00 0.00 0.00 0.00 0.01 0.04
0.01 0.00 0.00 0.00 0.00 0.00 0.00 0.00 0.00 0.00 0.00 0.00 0.00 0.00 0.00 0.00 0.00 0.00 0.00 0.00 0.00 0.00 0.00 0.00 0.00 0.00 0.00 0.00 0.00 0.00 0.00 0.00 0.00 0.00 0.00 0.00 0.00 0.00 0.00 0.00 0.00 0.00 0.00 0.00 0.01 0.02 0.03 0.04 0.06
0.02 0.02 0.01 0.00 0.00 0.00 0.00 0.00 0.00 0.00 0.00 0.00 0.00 0.00 0.00 0.00 0.00 0.00 0.00 0.00 0.00 0.00 0.00 0.00 0.00 0.00 0.00 0.00 0.00 0.00 0.00 0.00 0.00 0.00 0.00 0.00 0.00 0.00 0.00 0.00 0.00 0.00 0.00 0.02 0.06 0.08 0.10 0.09 0.07
0.00 0.01 0.01 0.02 0.00 0.00 0.00 0.00 0.00 0.00 0.00 0.00 0.00 0.00 0.00 0.00 0.00 0.00 0.00 0.00 0.00 0.00 0.00 0.00 0.00 0.00 0.00 0.00 0.00 0.00 0.00 0.00 0.00 0.00 0.00 0.00 0.00 0.00 0.00 0.00 0.00 0.00 0.00 0.03 0.04 0.07 0.06 0.08 0.11
MSLP
1012.58 1012.08 1011.29 1010.44 1008.80 1005.79 1002.94 1001.95 1001.71 1001.54 1001.91 1002.15 1002.31 1001.72 1001.06 1000.85 1000.83 1001.20 1002.73 1003.41 1004.01 1005.04 1006.29 1007.75 1008.44 1009.11 1009.42 1009.91 1010.17 1010.37 1010.65 1010.96 1011.24 1011.58 1011.92 1012.23 1012.53 1012.78 1013.10 1013.34 1013.58 1013.67 1013.75 1013.95 1014.06 1014.15 1014.24 1014.37 1014.41
1011.34 1011.55 1010.70 1008.45 1006.79 1003.63 1001.82 1001.56 1001.41 1001.09 1001.51 1002.10 1002.11 1002.09 1001.73 1000.94 1000.99 1001.85 1002.66 1003.95 1004.41 1005.17 1006.34 1007.06 1008.17 1008.71 1009.18 1009.67 1010.03 1010.36 1010.62 1011.03 1011.21 1011.51 1011.90 1012.13 1012.41 1012.73 1012.93 1013.29 1013.62 1013.76 1013.93 1014.04 1014.12 1014.35 1014.47 1014.53 1014.53
1011.42 1010.91 1008.91 1007.06 1005.11 1002.63 1000.52 1001.38 1001.06 1001.56 1001.81 1001.91 1001.75 1001.83 1001.56 1001.44 1001.69 1001.75 1002.45 1003.97 1004.41 1005.43 1006.31 1006.76 1007.84 1008.32 1008.74 1009.18 1009.74 1010.26 1010.66 1011.06 1011.26 1011.63 1011.81 1012.09 1012.36 1012.62 1012.77 1013.06 1013.39 1013.61 1013.90 1014.10 1014.28 1014.37 1014.51 1014.60 1014.71
1010.83 1010.01 1008.70 1006.61 1003.74 1002.86 1001.80 1001.53 1001.82 1001.57 1001.44 1001.56 1001.30 1001.17 1001.64 1001.68 1001.52 1001.57 1003.13 1004.05 1004.64 1005.39 1006.08 1006.81 1007.78 1008.38 1008.67 1009.00 1009.68 1010.18 1010.54 1010.98 1011.26 1011.58 1011.77 1012.06 1012.36 1012.61 1012.77 1013.09 1013.27 1013.41 1013.63 1013.82 1014.16 1014.39 1014.51 1014.67 1014.73
1010.58 1008.97 1006.98 1005.30 1003.64 1002.59 1002.38 1002.36 1002.14 1001.69 1001.35 1001.17 1001.23 1000.71 1001.03 1001.75 1002.24 1002.35 1003.15 1003.95 1004.15 1005.00 1005.67 1006.51 1007.90 1008.34 1008.65 1009.11 1009.72 1010.35 1010.72 1011.01 1011.26 1011.56 1011.83 1011.98 1012.24 1012.52 1012.87 1013.10 1013.25 1013.30 1013.45 1013.77 1014.03 1014.26 1014.38 1014.51 1014.63
1009.11 1007.97 1006.11 1004.30 1003.31 1002.90 1002.46 1002.35 1002.23 1001.62 1001.00 1000.77 1000.99 1000.78 1000.86 1001.61 1002.20 1002.62 1002.98 1003.53 1003.90 1004.67 1005.54 1006.01 1007.78 1008.53 1008.91 1009.07 1009.47 1010.13 1010.61 1010.88 1011.13 1011.44 1011.68 1012.08 1012.28 1012.43 1012.79 1013.15 1013.23 1013.28 1013.41 1013.64 1013.86 1014.06 1014.31 1014.45 1014.56
1008.33 1007.02 1005.25 1004.18 1003.47 1002.77 1002.28 1002.10 1002.07 1001.28 1000.76 1000.46 1000.40 1000.46 1000.93 1001.32 1001.95 1002.55 1002.77 1003.30 1003.87 1004.55 1005.39 1006.06 1006.99 1008.31 1009.00 1009.29 1009.42 1009.71 1010.14 1010.64 1011.00 1011.24 1011.58 1012.04 1012.42 1012.46 1012.76 1013.08 1013.17 1013.41 1013.58 1013.70 1013.84 1014.02 1014.25 1014.37 1014.50
1007.87 1006.64 1005.10 1003.94 1003.62 1003.26 1002.65 1002.40 1001.87 1001.37 1000.75 1001.23 1001.17 1000.43 1001.19 1001.72 1002.23 1002.50 1002.82 1003.25 1003.73 1004.42 1005.04 1005.51 1006.27 1007.13 1007.71 1008.36 1009.16 1009.56 1009.91 1010.36 1010.78 1011.07 1011.32 1011.72 1012.24 1012.45 1012.74 1012.94 1013.15 1013.46 1013.64 1013.75 1013.95 1014.10 1014.22 1014.28 1014.36
1008.08 1006.24 1004.11 1003.42 1003.38 1003.27 1003.17 1002.64 1001.56 1001.70 1001.14 1001.63 1001.33 1001.10 1001.82 1002.35 1002.34 1002.40 1002.68 1003.00 1003.15 1003.88 1004.64 1005.21 1005.72 1006.21 1006.73 1007.00 1007.88 1009.26 1009.77 1010.12 1010.46 1010.85 1011.34 1011.62 1011.54 1011.91 1012.18 1012.51 1012.72 1013.20 1013.53 1013.75 1013.93 1014.00 1013.99 1014.05 1014.10
1006.88 1005.05 1003.30 1003.41 1003.30 1003.85 1003.45 1002.87 1001.76 1001.96 1001.39 1001.35 1001.62 1002.51 1002.59 1002.62 1002.24 1002.06 1002.35 1002.35 1002.57 1003.20 1003.91 1004.65 1005.58 1005.89 1006.30 1006.43 1006.96 1008.07 1008.67 1009.36 1009.75 1009.88 1010.26 1010.92 1010.85 1010.92 1011.21 1011.67 1012.47 1012.86 1013.11 1013.19 1013.35 1013.73 1013.94 1013.98 1012.52
1005.71 1003.81 1003.19 1003.01 1003.50 1004.03 1003.41 1002.57 1002.35 1002.15 1000.98 1000.74 1001.01 1002.03 1002.53 1002.88 1002.91 1002.68 1002.31 1002.22 1001.94 1002.66 1003.16 1003.72 1004.90 1005.88 1005.98 1006.17 1006.41 1007.00 1007.60 1008.05 1008.52 1009.02 1009.28 1009.78 1010.05 1010.25 1010.72 1010.77 1011.60 1012.05 1012.88 1013.05 1013.13 1012.65 1012.66 1012.42 1012.07
1005.50 1004.03 1003.76 1003.24 1003.56 1004.21 1003.45 1002.81 1002.00 1001.69 1001.50 1001.18 1001.37 1002.14 1002.63 1002.67 1002.64 1002.85 1002.78 1002.36 1002.30 1002.48 1002.75 1003.48 1004.26 1005.46 1005.92 1005.80 1006.07 1006.16 1006.54 1006.96 1007.40 1007.81 1008.52 1008.80 1009.26 1009.55 1009.79 1009.93 1010.33 1010.98 1010.95 1010.87 1011.85 1011.73 1011.47 1011.75 1012.15
1004.87 1003.95 1003.70 1003.71 1003.84 1003.81 1003.86 1002.54 1001.97 1001.26 1001.34 1001.48 1001.63 1002.06 1002.30 1002.16 1002.20 1002.58 1002.81 1003.01 1002.68 1002.58 1002.58 1002.93 1003.63 1004.65 1005.26 1005.73 1005.28 1005.38 1005.48 1005.89 1006.15 1006.57 1007.29 1007.84 1008.07 1008.57 1009.19 1009.40 1009.55 1010.14 1010.30 1010.89 1011.32 1010.65 1011.48 1011.59 1011.85
1004.76 1004.50 1003.98 1003.58 1003.61 1003.65 1003.70 1002.09 1002.30 1000.69 1001.22 1001.08 1001.72 1001.49 1001.39 1001.21 1001.46 1001.91 1002.24 1002.51 1002.49 1002.23 1002.20 1002.41 1002.91 1003.63 1004.39 1004.67 1004.86 1004.71 1005.12 1005.01 1005.49 1005.71 1005.94 1006.94 1007.32 1007.76 1008.29 1008.82 1009.21 1009.29 1009.57 1010.06 1010.36 1010.81 1010.48 1011.33 1011.23
1005.74 1004.81 1003.93 1003.18 1003.14 1003.13 1003.40 1002.16 1000.20 1000.68 1000.88 1000.67 1000.88 1000.85 1000.81 1000.79 1001.01 1001.10 1001.47 1001.67 1001.91 1001.77 1001.95 1002.26 1002.60 1003.03 1003.48 1003.69 1004.01 1004.18 1004.08 1004.43 1004.46 1004.86 1005.41 1006.08 1007.04 1007.17 1007.72 1008.07 1008.42 1008.74 1009.15 1009.64 1010.10 1010.45 1011.02 1010.58 1010.79
1006.16 1005.33 1003.35 1001.35 1002.73 1002.57 1003.38 1000.31 998.71 1000.16 1000.09 999.98 1000.07 999.98 999.87 999.89 1000.11 1000.23 1000.52 1000.57 1001.41 1001.68 1001.79 1001.89 1001.97 1001.98 1002.61 1002.77 1002.99 1003.17 1003.23 1003.50 1003.55 1003.84 1004.52 1005.40 1006.22 1006.78 1007.18 1007.24 1007.74 1008.05 1008.55 1009.13 1009.45 1010.23 1010.36 1010.46 1010.38
1005.07 1002.74 1001.62 1001.21 1001.21 1002.21 1002.38 1000.05 998.94 999.74 999.37 998.94 999.14 999.06 999.08 998.92 999.15 999.85 1000.28 1000.65 1001.10 1001.39 1001.55 1001.64 1001.73 1001.75 1001.96 1002.15 1002.32 1002.46 1002.67 1002.85 1002.91 1003.19 1003.69 1004.48 1005.46 1006.16 1006.54 1006.87 1007.11 1007.63 1008.08 1008.57 1009.16 1009.68 1009.88 1009.89 1010.37
1002.83 1002.27 1002.10 1001.00 1000.47 1000.87 1000.79 999.30 999.41 999.14 998.83 998.41 998.46 998.65 998.54 998.54 998.78 999.47 999.91 1000.17 1000.61 1001.01 1001.24 1001.22 1001.24 1001.22 1001.61 1001.83 1001.83 1001.84 1001.75 1001.95 1002.42 1002.62 1003.11 1003.94 1004.76 1005.40 1006.33 1006.46 1006.66 1007.19 1007.51 1007.98 1008.59 1009.13 1009.57 1010.10 1010.18
1004.29 1002.82 1001.30 1000.96 1000.76 1000.42 999.65 999.03 998.92 999.09 998.85 998.42 998.30 998.49 998.60 998.51 998.85 999.23 999.53 999.96 1000.14 1000.38 1000.42 1000.50 1000.61 1000.83 1001.10 1001.00 1000.92 1000.75 1000.53 1000.97 1001.66 1002.11 1002.75 1003.55 1004.28 1005.17 1005.86 1005.92 1006.34 1006.89 1006.80 1007.34 1008.11 1008.99 1009.13 1009.51 1010.20
1004.74 1003.88 1002.31 1002.13 1001.23 1000.82 1000.16 998.97 998.82 998.47 997.85 997.83 997.92 997.93 998.12 998.12 998.30 998.45 998.70 999.05 999.29 999.42 999.56 999.57 999.78 1000.03 1000.40 1000.27 1000.23 999.85 999.74 999.95 1000.75 1001.61 1002.47 1003.27 1004.18 1004.78 1005.10 1005.38 1005.68 1006.34 1006.55 1007.34 1008.06 1008.31 1008.53 1009.28 1010.02
1005.03 1004.28 1003.40 1002.56 1002.00 1001.60 1000.86 999.17 998.41 997.95 997.93 997.87 997.77 997.86 997.94 997.61 997.52 997.59 997.65 997.84 997.98 998.12 998.46 998.75 998.91 999.20 999.49 999.85 999.86 1000.05 999.99 1000.30 1000.62 1001.22 1002.50 1003.35 1003.73 1004.20 1004.62 1005.08 1005.28 1005.95 1006.24 1007.04 1007.54 1008.16 1008.28 1008.82 1009.74
1004.78 1004.69 1003.94 1003.39 1002.64 1000.74 1000.81 998.16 997.47 997.09 996.57 996.66 996.69 996.83 996.58 996.35 996.40 996.49 996.32 996.35 996.65 996.86 997.30 997.70 998.11 998.50 998.63 998.99 998.69 999.03 999.07 999.47 1000.13 1000.88 1002.27 1002.73 1003.29 1003.87 1004.55 1005.11 1005.26 1005.73 1006.06 1006.28 1007.11 1007.85 1007.83 1008.51 1009.09
1004.50 1004.51 1003.94 1003.64 1002.49 1001.80 1000.38 999.03 996.60 996.70 995.70 995.47 995.54 995.55 995.52 995.36 995.33 995.19 995.21 995.17 995.48 995.88 996.35 996.82 997.34 997.53 997.77 997.93 998.19 998.66 998.81 999.10 1000.18 1000.69 1001.70 1002.79 1003.35 1003.89 1004.40 1004.67 1005.21 1005.59 1005.58 1006.29 1006.87 1007.29 1007.84 1008.49 1008.34
1005.16 1004.76 1004.28 1004.09 1002.95 1000.60 999.51 998.75 996.09 995.45 994.51 994.46 994.44 994.40 994.59 994.35 994.20 994.39 994.41 994.62 994.98 995.37 995.75 996.12 996.59 996.73 997.27 997.61 998.09 998.40 998.60 998.88 999.54 1000.35 1002.04 1002.74 1003.33 1003.70 1004.04 1004.49 1004.87 1005.29 1005.60 1006.21 1006.81 1007.32 1007.81 1008.12 1008.07
1005.16 1004.71 1003.60 1002.78 1001.86 1000.13 999.41 998.48 996.78 994.78 993.80 994.34 994.54 994.19 994.24 994.11 993.83 993.74 993.74 993.84 994.34 994.77 995.05 995.54 996.16 996.39 996.95 997.41 997.85 998.29 998.75 999.28 999.73 1001.03 1001.66 1002.00 1002.73 1003.11 1003.82 1004.16 1004.66 1005.43 1005.87 1006.23 1006.71 1007.29 1007.55 1008.03 1008.24
1005.02 1004.38 1003.11 1000.87 999.79 999.09 999.06 996.92 995.72 995.28 994.88 994.46 994.71 994.31 994.08 993.71 993.24 993.07 993.27 993.71 993.89 994.59 995.20 995.46 995.83 996.37 996.94 997.35 997.79 998.25 998.84 999.10 999.66 1000.12 1000.78 1001.30 1001.95 1002.63 1003.71 1004.18 1004.81 1005.22 1005.74 1006.26 1006.78 1007.04 1007.35 1007.72 1008.10
1005.10 1004.87 1004.03 1001.89 1000.51 997.86 996.47 996.86 996.09 995.05 994.96 994.45 994.28 994.27 993.90 993.46 993.05 992.84 993.18 993.64 994.19 995.01 995.19 995.42 995.91 996.50 996.97 997.42 997.97 998.55 998.74 999.09 999.54 1000.42 1000.85 1001.38 1002.14 1003.09 1003.79 1004.32 1004.82 1005.31 1005.80 1006.27 1006.75 1006.59 1007.21 1007.51 1008.02
1005.43 1006.00 1005.78 1002.54 1000.90 997.64 995.47 994.83 994.20 993.30 994.36 994.38 994.63 994.50 993.67 993.40 992.91 992.93 993.70 994.56 994.88 995.02 995.44 995.80 996.31 996.74 997.16 997.76 998.28 998.67 999.06 999.59 1000.38 1000.90 1001.29 1001.94 1002.82 1003.35 1004.06 1004.57 1005.03 1005.47 1005.81 1006.19 1006.60 1006.46 1006.99 1007.42 1007.74
1005.78 1006.05 1005.56 1003.49 1000.95 997.60 995.28 993.47 993.19 993.66 994.67 995.27 995.11 994.55 994.05 994.11 993.59 994.27 994.92 994.98 994.92 995.31 995.71 996.14 996.58 996.89 997.45 998.05 998.63 999.12 999.56 1000.12 1000.71 1001.31 1001.96 1002.59 1003.17 1003.68 1004.14 1004.59 1005.00 1005.33 1005.68 1006.03 1006.42 1006.59 1006.81 1007.00 1007.15
1005.39 1006.04 1005.53 1004.49 1001.88 998.95 997.22 993.99 993.74 994.34 995.05 995.53 995.20 994.82 994.34 995.42 995.58 995.62 995.41 994.70 995.00 995.37 995.77 996.18 996.60 997.13 997.90 998.51 999.06 999.70 1000.17 1000.71 1001.27 1001.80 1002.41 1002.95 1003.42 1003.79 1004.16 1004.52 1004.78 1005.07 1005.35 1005.84 1006.00 1006.02 1006.13 1006.65 1007.01
Thickness
5763 5767 5775 5772 5757 5776 5785 5797 5817 5813 5812 5829 5833 5832 5834 5843 5830 5816 5862 5864 5862 5853 5843 5831 5823 5815 5810 5804 5800 5797 5794 5790 5785 5780 5774 5770 5766 5763 5758 5754 5749 5747 5745 5740 5738 5736 5735 5733 5732
5767 5766 5769 5773 5755 5769 5790 5810 5802 5820 5826 5830 5831 5829 5826 5826 5853 5849 5851 5857 5858 5850 5839 5834 5824 5817 5811 5805 5801 5798 5794 5787 5782 5778 5772 5767 5763 5757 5756 5751 5746 5743 5739 5735 5732 5730 5727 5725 5725
5761 5766 5763 5762 5767 5772 5802 5806 5814 5818 5826 5822 5821 5835 5832 5827 5845 5850 5861 5855 5855 5845 5837 5833 5823 5818 5814 5809 5803 5797 5791 5785 5780 5774 5770 5766 5762 5757 5754 5749 5744 5741 5736 5733 5728 5725 5721 5719 5717
5753 5756 5761 5750 5768 5787 5794 5804 5808 5811 5822 5827 5830 5819 5837 5852 5848 5858 5855 5851 5847 5843 5836 5829 5821 5815 5813 5809 5800 5795 5789 5783 5777 5770 5766 5763 5760 5756 5752 5747 5744 5741 5736 5732 5726 5721 5717 5713 5711
5749 5750 5743 5751 5768 5790 5796 5800 5804 5803 5811 5819 5827 5819 5826 5844 5852 5854 5848 5846 5846 5843 5838 5830 5818 5813 5810 5806 5798 5791 5786 5780 5775 5768 5763 5760 5756 5752 5747 5743 5741 5738 5735 5730 5725 5719 5716 5713 5709
5735 5749 5736 5747 5767 5783 5792 5799 5798 5804 5815 5821 5819 5821 5826 5847 5842 5843 5847 5844 5848 5841 5836 5832 5817 5809 5805 5803 5798 5791 5785 5780 5774 5769 5764 5757 5753 5750 5744 5739 5736 5733 5730 5726 5721 5718 5713 5710 5706
5729 5735 5740 5754 5758 5767 5784 5802 5792 5803 5810 5813 5832 5814 5826 5836 5843 5843 5845 5844 5842 5840 5832 5827 5818 5806 5799 5797 5795 5792 5786 5779 5773 5769 5762 5755 5749 5746 5742 5736 5733 5728 5724 5721 5718 5714 5710 5707 5702
5735 5736 5735 5753 5748 5753 5779 5787 5801 5801 5804 5817 5827 5807 5803 5826 5838 5840 5840 5839 5836 5832 5828 5827 5820 5812 5805 5799 5793 5788 5784 5779 5772 5765 5761 5755 5747 5743 5738 5734 5728 5723 5719 5716 5712 5709 5706 5703 5700
5731 5719 5730 5748 5751 5760 5775 5772 5799 5806 5799 5804 5814 5816 5817 5826 5834 5830 5829 5829 5831 5827 5824 5823 5819 5814 5808 5805 5797 5785 5778 5774 5770 5764 5756 5750 5746 5740 5735 5731 5727 5721 5716 5712 5709 5706 5704 5701 5699
5718 5722 5742 5764 5762 5751 5764 5769 5784 5780 5788 5792 5797 5804 5812 5816 5822 5821 5819 5820 5824 5822 5822 5820 5813 5810 5807 5804 5799 5787 5780 5772 5768 5765 5759 5750 5747 5744 5739 5734 5725 5720 5716 5713 5710 5704 5699 5697 5706
5724 5725 5756 5759 5758 5752 5757 5768 5778 5771 5774 5794 5794 5793 5799 5801 5804 5808 5815 5819 5825 5824 5823 5822 5812 5802 5800 5798 5795 5788 5782 5777 5771 5767 5763 5756 5750 5745 5739 5736 5727 5721 5712 5705 5703 5706 5703 5703 5704
5702 5734 5740 5752 5745 5739 5746 5766 5766 5771 5777 5796 5796 5794 5792 5794 5798 5800 5803 5812 5816 5819 5820 5818 5813 5801 5795 5796 5792 5791 5785 5780 5776 5770 5763 5759 5753 5747 5742 5739 5733 5725 5720 5718 5707 5708 5707 5703 5699
5702 5723 5731 5735 5731 5737 5741 5748 5758 5766 5784 5790 5789 5784 5786 5793 5798 5801 5802 5804 5809 5810 5815 5814 5811 5801 5795 5789 5793 5791 5788 5783 5780 5774 5769 5763 5757 5749 5742 5738 5734 5726 5721 5713 5708 5709 5695 5697 5694
5706 5704 5711 5721 5721 5726 5721 5744 5745 5770 5779 5780 5773 5779 5788 5795 5797 5797 5798 5798 5801 5808 5812 5813 5809 5802 5795 5791 5789 5789 5785 5786 5781 5777 5774 5765 5757 5751 5744 5736 5732 5728 5723 5714 5710 5704 5703 5694 5693
5681 5675 5692 5705 5716 5715 5720 5716 5739 5769 5771 5767 5772 5779 5784 5790 5794 5795 5798 5797 5801 5806 5808 5804 5803 5800 5796 5793 5790 5786 5787 5785 5782 5778 5771 5764 5754 5750 5744 5737 5733 5728 5720 5713 5707 5701 5694 5695 5692
5653 5659 5664 5717 5705 5714 5694 5705 5762 5765 5761 5758 5770 5778 5783 5789 5792 5799 5802 5805 5802 5802 5799 5801 5802 5801 5796 5793 5791 5788 5787 5784 5783 5781 5772 5763 5754 5747 5742 5739 5732 5726 5721 5712 5707 5697 5693 5690 5688
5651 5660 5677 5691 5709 5696 5681 5703 5752 5757 5752 5760 5763 5774 5778 5786 5792 5794 5796 5798 5797 5796 5795 5794 5795 5793 5792 5790 5789 5788 5784 5782 5782 5779 5773 5765 5753 5746 5741 5735 5731 5724 5718 5711 5703 5695 5692 5687 5682
5658 5656 5660 5669 5698 5689 5683 5705 5729 5738 5746 5750 5757 5763 5773 5777 5783 5788 5792 5794 5793 5791 5789 5789 5788 5789 5785 5783 5784 5785 5784 5784 5779 5776 5771 5763 5753 5746 5736 5732 5728 5723 5716 5710 5702 5694 5689 5681 5677
5632 5639 5654 5666 5681 5673 5683 5698 5713 5722 5729 5735 5743 5749 5756 5764 5778 5782 5785 5786 5785 5784 5785 5784 5782 5782 5779 5779 5778 5780 5782 5781 5775 5774 5768 5759 5751 5741 5731 5729 5725 5718 5715 5708 5699 5688 5684 5679 5672
5605 5609 5629 5642 5658 5662 5669 5679 5699 5712 5721 5732 5736 5743 5749 5759 5766 5774 5779 5781 5781 5780 5781 5784 5781 5780 5776 5776 5778 5784 5784 5782 5776 5769 5761 5754 5743 5736 5731 5727 5723 5716 5711 5702 5693 5686 5682 5674 5666
5578 5587 5605 5615 5632 5644 5647 5656 5680 5703 5711 5721 5730 5737 5740 5750 5759 5766 5772 5776 5779 5779 5779 5779 5781 5779 5776 5777 5777 5775 5776 5771 5766 5761 5750 5742 5738 5734 5729 5723 5720 5713 5708 5697 5690 5683 5679 5667 5660
5552 5575 5583 5590 5600 5615 5641 5636 5673 5694 5704 5714 5726 5732 5744 5754 5761 5765 5770 5775 5777 5780 5782 5783 5780 5777 5777 5776 5776 5773 5770 5763 5762 5755 5744 5740 5736 5730 5723 5716 5714 5708 5703 5698 5689 5681 5678 5666 5655
5547 5562 5569 5573 5586 5599 5620 5619 5670 5687 5694 5711 5724 5734 5743 5752 5757 5764 5771 5776 5780 5781 5782 5782 5779 5778 5776 5776 5774 5769 5765 5764 5756 5751 5741 5731 5728 5723 5718 5714 5708 5703 5701 5693 5685 5678 5670 5662 5658
5545 5545 5553 5557 5565 5576 5616 5615 5660 5678 5703 5715 5726 5735 5741 5751 5758 5764 5771 5775 5776 5778 5779 5779 5776 5776 5773 5771 5767 5764 5761 5758 5752 5746 5728 5723 5720 5717 5715 5710 5705 5700 5694 5686 5680 5673 5665 5659 5655
5535 5536 5541 5546 5552 5558 5609 5601 5642 5689 5709 5706 5710 5723 5733 5744 5754 5760 5765 5771 5772 5774 5775 5775 5771 5770 5768 5765 5762 5758 5754 5749 5744 5731 5726 5723 5717 5714 5708 5706 5699 5690 5685 5680 5674 5666 5661 5653 5648
5528 5537 5544 5557 5576 5584 5600 5596 5647 5680 5692 5702 5706 5718 5729 5739 5750 5759 5763 5766 5770 5768 5765 5766 5766 5763 5761 5759 5756 5754 5748 5745 5740 5736 5730 5725 5718 5712 5704 5699 5692 5686 5681 5674 5667 5663 5658 5651 5646
5524 5519 5544 5558 5571 5599 5618 5612 5646 5671 5677 5692 5700 5710 5720 5732 5743 5754 5760 5762 5761 5757 5760 5762 5760 5757 5755 5753 5749 5744 5743 5740 5734 5727 5724 5718 5712 5703 5696 5691 5686 5680 5674 5668 5662 5661 5652 5649 5642
5520 5517 5504 5547 5542 5576 5620 5625 5640 5668 5669 5683 5687 5695 5716 5726 5741 5749 5750 5745 5749 5754 5755 5755 5753 5749 5748 5744 5741 5738 5735 5730 5723 5718 5713 5707 5700 5695 5688 5682 5677 5673 5668 5664 5658 5656 5651 5644 5640
5504 5506 5516 5540 5567 5592 5614 5637 5658 5659 5661 5663 5675 5693 5709 5715 5731 5730 5731 5737 5745 5747 5747 5745 5743 5742 5739 5736 5733 5729 5724 5719 5714 5708 5703 5697 5692 5687 5682 5677 5672 5668 5664 5661 5655 5652 5648 5644 5642
5513 5504 5507 5509 5545 5578 5582 5622 5647 5652 5656 5661 5672 5690 5705 5700 5706 5714 5722 5737 5739 5740 5740 5738 5737 5734 5730 5728 5724 5718 5715 5710 5704 5699 5694 5690 5685 5682 5677 5673 5670 5667 5663 5658 5655 5653 5651 5643 5638